SCP
0 0 0 0 0 0 0 0 0 0 0 0 0 0 0 0 0 0 0 0 0 0 0 0 0 0 0 0 0 0 0 0 0 0 0 0 0 0 0 0 0 -0 -0
0 0 0 0 0 0 0 0 0 0 0 0 0 0 0 0 0 0 0 0 0 0 0 0 0 0 0 0 0 0 0 0 0 0 0 0 0 0 0 0 0 0 0
0 0 0 0 0 0 0 0 0 0 0 0 0 0 0 0 0 0 0 0 0 0 0 0 0 0 0 0 0 0 0 0 0 0 0 0 0 0 0 0 0 0 0
0 0 0 0 0 0 0 0 0 0 0 0 0 0 0 0 0 0 0 0 0 0 0 0 0 0 0 0 0 0 0 0 0 0 0 0 0 0 0 0 0 0 0
0 0 0 0 0 0 0 0 0 0 0 0 0 0 0 0 0 0 0 0 0 0 0 0 0 0 0 0 0 0 0 0 0 0 0 0 0 0 0 0 0 0 0
0 0 0 0 0 0 0 0 0 0 0 0 0 0 0 0 0 0 0 0 0 0 0 0 0 0 0 0 0 0 0 0 0 0 0 0 0 0 0 0 0 0 0
0 0 0 0 0 0 0 0 0 0 0 0 0 0 0 0 0 0 0 0 0 0 0 0 0 0 0 0 0 0 0 0 0 0 0 0 0 0 0 0 0 0 0
0 0 0 0 0 0 0 0 0 0 0 0 0 0 0 0 0 0 0 0 0 0 0 0 0 0 0 0 0 0 0 0 0 0 0 0 0 0 0 0 0 0 0
0 0 0 0 0 0 0 0 0 0 0 0 0 0 0 0 0 0 0 0 0 0 0 0 0 0 0 0 0 0 0 0 0 0 0 0 0 0 0 0 0 0 0
0 0 0 0 0 0 0 0 0 0 0 0 0 0 0 0 0 0 0 0 0 0 0 0 0 0 0 0 0 0 0 0 0 0 0 0 0 0 0 0 0 0 0
0 0 0 0 0 0 0 0 0 0 0 0 0 0 0 0 0 0 0 0 0 0 0 0 0 0 0 0 0 0 0 0 0 0 0 0 0 0 0 0 0 0 0
0 -0 -0 -0 -0 -0 -0 0 0 0 0 0 0 0 0 0 0 0 0 0 0 0 0 0 0 0 0 0 0 0 0 0 0 0 0 0 0 0 0 0 0 0 0
-0 -0 -0 -0 -0 -0 -0 -0 -0 0 0 0 0 0 0 0 0 0 0 0 0 0 0 0 0 0 0 0 0 0 0 0 0 0 0 0 0 0 0 0 0 0 0
-0 -0 -0 -0 -0 -0 -0 -0 -0 -0 -0 0 0 0 -0 0 0 0 0 0 0 0 0 0 0 0 0 0 0 0 0 0 0 0 0 0 0 0 0 0 0 0 0
-0 -0 -0 -0 -0 -0 -0 -0 -0 -0 -0 0 0 0 0 -0 0 0 0 0 0 0 0 0 0 0 0 0 0 0 0 0 0 0 0 0 0 0 0 0 0 0 0
-0 -0 -0 -0 -0 -0 -0 -0 -0 -0 -0 0 0 0 0 0 0 0 0 0 0 0 0 0 0 0 0 0 0 0 0 0 0 0 0 0 0 0 0 0 0 0 0
-0 -0 -0 -0 -0 -0 -0 -0 -0 -0 -0 0 0 0 0 0 0 0 0 0 0 0 0 0 0 0 0 0 0 0 0 0 0 0 0 0 0 0 0 0 0 0 0
-0 -0 -0 -0 -0 -0 -0 -0 -0 -0 0 0 0 0 0 0 0 0 0 0 0 0 0 0 0 0 0 0 0 0 0 0 0 0 0 0 0 0 0 0 0 0 0
0 0 -0 -0 -0 -0 -0 -0 -0 -0 0 0 0 0 0 0 0 0 0 0 0 0 0 0 0 0 0 0 0 0 0 0 0 0 0 0 0 0 0 0 0 0 0
0 0 0 -0 -0 -0 -0 -0 -0 0 0 0 0 0 0 0 0 0 0 0 0 0 0 0 0 0 0 0 0 0 0 0 0 0 0 0 0 0 0 0 0 0 0
0 0 0 -0 -0 -0 -0 -0 -0 0 -0 -0 0 0 0 0 0 0 0 0 0 0 0 0 0 0 0 0 0 0 0 0 0 0 0 0 0 0 0 0 0 0 0
0 0 0 -0 -0 -0 -0 -0 -0 -0 -0 -0 0 0 0 0 0 0 0 0 0 0 0 0 0 0 0 0 0 0 0 0 0 0 0 0 0 0 0 0 0 0 0
0 0 0 0 0 0 -0 -0 -0 -0 -0 -0 0 0 0 0 0 0 0 0 0 0 0 0 0 0 0 0 0 0 0 0 0 0 0 0 0 0 0 0 0 0 0
0 0 0 0 0 0 -0 -0 -0 -0 -0 -0 -0 0 0 0 0 0 0 0 0 0 0 0 0 0 0 0 0 0 0 0 0 0 0 0 0 0 0 0 0 0 0
0 0 0 -0 0 0 0 -0 -0 -0 -0 -0 -0 0 0 0 0 0 0 0 0 0 0 0 0 0 0 0 0 0 0 0 0 0 0 0 0 0 0 0 0 0 0
0 0 0 0 0 0 0 -0 -0 -0 -0 -0 -0 -0 0 0 0 0 0 0 0 0 0 0 0 0 0 0 0 0 0 0 0 0 0 0 0 0 0 0 0 0 0
Wind_Speed_500mb
19 25 33 35 30 39 61 64 61 56 52 52 62 69 70 68 62 57 53 51 43 41 37 33 30 27 24 22 20 19 17 14 10 11 13 16 16 12 11 6 3 1 5
38 17 12 17 23 27 42 67 67 62 53 53 59 79 75 71 65 63 59 52 46 43 39 35 32 28 26 24 22 21 20 18 16 17 21 18 18 17 12 9 7 5 3
72 63 37 22 9 21 39 64 70 64 56 53 59 74 70 67 67 68 62 55 52 46 41 37 34 30 28 25 24 24 23 22 20 23 19 14 15 28 18 15 12 7 1
70 71 63 44 25 11 33 52 65 65 59 56 58 65 71 78 80 76 68 58 58 49 44 39 36 32 29 27 26 26 25 25 25 25 33 24 17 17 20 22 18 12 6
72 74 66 57 44 26 17 35 54 67 66 59 58 60 69 73 77 74 65 60 58 52 46 42 38 34 31 28 27 28 26 27 27 26 28 30 28 23 15 22 26 17 10
74 73 72 64 56 39 25 4 38 56 68 66 63 63 67 72 79 76 71 70 61 56 49 44 40 36 32 28 29 29 29 28 28 27 28 28 28 27 22 21 30 22 16
71 72 75 76 71 62 45 23 4 37 55 66 69 66 67 68 74 72 70 66 68 61 54 46 41 36 33 29 29 30 30 29 28 27 28 28 28 25 28 26 29 23 25
67 67 65 66 67 65 58 42 16 14 38 52 63 68 69 65 67 71 68 66 68 63 53 46 42 39 34 30 28 29 29 28 28 28 28 28 28 29 28 26 25 29 20
60 61 61 61 60 60 57 54 41 20 16 32 44 60 67 65 62 63 67 65 64 62 56 49 45 41 35 30 28 27 27 27 27 29 29 29 31 30 27 25 22 24 18
49 51 51 54 55 55 52 46 43 36 24 25 29 41 55 62 59 60 62 65 65 61 59 54 49 44 37 31 27 25 24 24 25 28 30 31 31 30 28 25 21 16 15
45 46 45 42 46 52 53 50 45 43 32 23 29 31 40 54 57 60 57 60 63 63 62 58 52 47 39 33 28 24 22 22 24 29 32 31 30 28 25 22 19 14 11
44 43 43 43 47 48 54 55 52 45 40 31 26 31 33 45 53 59 55 56 61 65 64 60 55 50 43 37 31 24 21 21 25 28 30 29 27 25 19 14 10 8 8
39 40 43 47 52 52 53 57 54 52 42 38 29 29 41 44 46 53 55 55 59 65 66 65 60 55 46 41 36 28 24 24 25 24 25 24 22 18 15 12 9 6 6
30 32 35 39 51 56 55 59 58 53 49 39 36 29 35 46 48 46 51 56 57 63 68 68 64 56 49 45 41 37 32 29 26 23 22 21 19 17 14 12 9 7 6
30 30 32 37 46 56 59 61 61 60 55 50 40 36 31 42 49 48 48 54 64 65 67 69 65 60 55 51 48 42 36 33 30 27 25 22 19 17 15 12 11 9 7
37 38 32 32 48 52 54 63 64 63 63 58 52 41 36 36 48 49 49 53 62 68 70 72 68 66 61 54 48 44 40 36 34 31 28 26 23 21 17 13 11 9 7
35 43 42 39 49 53 52 58 66 65 66 64 59 51 43 38 42 50 53 57 61 67 74 74 72 70 63 55 51 47 42 39 37 35 32 30 27 23 20 16 13 11 7
42 42 39 45 50 52 56 61 64 68 67 66 63 56 50 42 38 52 58 60 64 69 75 77 76 73 65 59 53 48 45 42 40 37 34 30 28 25 22 18 15 12 9
44 35 41 47 48 54 59 65 67 71 70 70 67 61 55 49 41 48 61 64 68 71 77 79 80 77 69 63 57 52 50 48 44 41 39 35 31 28 24 20 16 12 10
35 36 38 42 46 53 58 64 68 70 70 73 73 66 61 55 47 48 56 65 70 72 74 81 81 77 70 66 60 56 52 49 48 46 42 38 34 31 25 20 17 14 11
36 34 36 45 52 52 56 62 67 68 68 74 76 70 61 57 46 44 51 61 68 72 78 82 82 78 73 67 61 57 56 52 50 49 45 42 38 34 29 24 21 18 14
47 39 39 49 52 51 54 59 65 67 69 74 77 74 62 56 44 42 51 58 65 73 78 83 82 80 75 70 66 60 56 52 50 47 43 40 39 37 33 29 26 21 18
57 49 44 49 57 53 50 59 67 68 72 77 78 74 62 57 41 43 51 59 65 74 81 84 84 84 79 75 69 63 58 55 53 45 41 43 43 40 38 34 30 26 21
57 47 44 52 60 56 55 64 66 67 73 80 79 72 62 57 40 43 51 59 70 76 83 86 87 85 81 80 76 72 65 59 55 52 53 51 48 44 39 39 35 29 24
50 40 48 55 61 62 66 67 68 70 74 80 80 69 61 52 43 46 53 62 67 77 84 87 86 89 89 85 76 76 73 68 61 58 59 60 57 53 48 44 39 35 29
46 50 54 60 67 69 71 71 71 70 75 80 79 64 59 46 42 47 49 54 55 63 69 74 84 84 77 74 72 67 62 59 60 65 65 63 58 54 49 46 42 37 32
Wind_Direction_500mb
328 302 275 273 276 257 248 242 238 239 238 237 227 222 220 209 208 219 226 225 226 232 234 237 241 246 253 260 261 261 259 253 235 204 180 165 159 157 165 165 129 5 6
39 15 320 289 259 252 257 237 236 236 242 238 235 224 219 213 211 214 220 226 226 230 233 238 241 246 254 260 261 260 258 252 234 216 198 180 186 190 193 190 202 242 1
42 38 29 19 345 246 242 239 233 235 238 240 233 228 220 221 216 216 218 225 227 228 232 237 240 245 252 259 261 261 260 257 244 222 204 180 197 184 202 201 212 229 166
41 39 35 28 14 321 248 237 233 235 240 242 238 238 233 223 220 218 220 219 225 228 231 235 240 244 252 259 262 262 261 262 253 233 219 214 186 180 183 202 207 219 212
37 34 34 32 29 12 320 246 237 235 238 243 243 243 234 233 231 225 226 228 226 227 230 234 239 243 250 257 263 265 264 262 252 235 221 209 203 196 173 182 198 202 193
35 35 34 33 31 27 24 280 225 241 243 241 243 244 243 236 231 228 226 226 228 230 231 233 238 240 247 256 263 267 268 262 249 233 220 212 205 207 189 182 187 188 182
31 29 27 27 27 25 20 26 241 235 244 245 244 247 247 245 241 237 234 234 234 231 233 235 240 241 246 256 264 268 267 258 243 231 223 219 214 206 197 192 186 180 180
27 24 23 24 24 23 19 13 3 249 245 251 249 249 249 250 248 243 241 242 243 240 237 237 237 237 244 255 261 265 262 250 237 228 221 217 205 191 186 183 181 171 171
24 19 15 18 18 20 20 13 360 329 273 251 255 255 254 251 253 251 246 241 244 242 237 237 237 237 242 249 254 260 255 242 231 224 215 207 195 186 183 176 166 177 165
14 14 14 9 10 13 13 12 8 353 317 274 258 251 257 255 257 254 249 243 241 241 237 235 234 234 238 243 247 252 245 234 224 213 203 195 187 183 180 172 161 157 161
7 8 9 8 1 360 4 5 3 0 344 298 270 255 251 255 256 254 252 247 243 240 236 234 233 233 235 236 237 241 233 221 212 200 193 189 184 182 176 171 163 155 131
360 1 2 2 358 353 351 355 358 356 352 333 290 262 246 252 255 254 252 247 242 238 236 233 231 231 231 230 228 229 222 212 205 194 189 186 182 181 175 161 148 138 118
348 351 351 354 355 353 346 343 346 350 346 341 320 275 250 246 251 256 253 249 242 238 236 231 230 229 229 227 222 218 210 205 204 198 192 190 187 180 172 161 139 124 97
325 337 342 345 344 345 344 337 337 339 339 337 331 309 269 248 244 250 254 251 245 240 236 232 229 227 227 224 220 218 212 209 210 209 203 196 192 182 172 166 163 150 106
303 318 326 335 341 339 338 334 331 335 334 331 331 321 296 262 242 238 246 247 243 241 238 232 228 225 224 223 220 218 216 215 214 211 205 197 188 182 173 165 166 157 146
316 316 312 330 340 338 334 329 331 331 331 329 326 321 306 278 250 235 238 242 241 238 235 231 227 225 223 222 220 220 219 216 214 211 205 197 186 179 177 175 177 173 171
295 300 308 320 329 328 329 328 328 331 328 327 323 317 310 290 260 240 234 236 236 237 234 230 227 226 225 223 220 219 217 215 212 208 204 198 195 194 190 189 192 186 177
286 286 301 313 318 318 326 324 327 329 328 323 320 315 311 298 270 242 234 233 233 233 233 230 227 226 224 222 221 218 215 212 209 208 204 201 201 199 196 197 196 193 184
274 276 297 308 312 316 320 318 321 325 328 323 321 314 311 301 284 250 235 232 231 231 230 229 227 226 222 221 219 217 213 209 208 206 204 201 199 200 199 197 192 189 185
256 285 299 303 308 313 311 312 316 321 324 323 320 314 310 302 285 264 241 234 231 231 229 229 228 226 223 221 218 217 213 210 207 204 202 199 199 201 200 197 196 193 191
257 289 297 299 305 307 307 306 310 315 318 319 317 314 306 301 282 269 246 233 232 230 228 227 227 225 222 222 219 217 215 213 210 207 204 201 202 201 201 201 198 195 195
265 285 286 293 300 305 302 302 305 312 312 314 314 313 306 300 278 263 248 235 231 230 228 225 224 222 220 219 218 217 214 212 213 211 205 204 205 205 205 203 203 200 200
270 282 283 289 293 301 300 301 306 306 307 311 312 311 304 297 271 255 246 237 228 229 226 223 222 219 216 216 215 215 211 210 211 206 206 207 207 206 206 206 206 206 206
267 276 283 292 294 296 299 301 304 303 303 308 309 308 302 295 266 252 244 238 229 226 225 220 219 218 216 215 213 211 208 208 207 203 204 207 208 209 210 210 209 208 210
272 274 286 290 290 292 291 296 300 300 300 305 306 303 298 289 268 254 244 239 235 228 224 220 217 216 216 215 216 215 210 208 206 204 206 208 209 210 211 213 212 211 211
276 282 284 286 288 286 287 291 295 295 296 301 301 298 293 279 266 257 248 242 240 235 227 223 224 223 224 221 219 217 215 213 211 209 213 214 215 217 216 217 219 217 215
Wind_Speed_850mb
19 25 33 35 30 39 61 64 61 56 52 52 62 69 70 68 62 57 53 51 43 41 37 33 30 27 24 22 20 19 17 14 10 11 13 16 16 12 11 6 3 1 5
38 17 12 17 23 27 42 67 67 62 53 53 59 79 75 71 65 63 59 52 46 43 39 35 32 28 26 24 22 21 20 18 16 17 21 18 18 17 12 9 7 5 3
72 63 37 22 9 21 39 64 70 64 56 53 59 74 70 67 67 68 62 55 52 46 41 37 34 30 28 25 24 24 23 22 20 23 19 14 15 28 18 15 12 7 1
70 71 63 44 25 11 33 52 65 65 59 56 58 65 71 78 80 76 68 58 58 49 44 39 36 32 29 27 26 26 25 25 25 25 33 24 17 17 20 22 18 12 6
72 74 66 57 44 26 17 35 54 67 66 59 58 60 69 73 77 74 65 60 58 52 46 42 38 34 31 28 27 28 26 27 27 26 28 30 28 23 15 22 26 17 10
74 73 72 64 56 39 25 4 38 56 68 66 63 63 67 72 79 76 71 70 61 56 49 44 40 36 32 28 29 29 29 28 28 27 28 28 28 27 22 21 30 22 16
71 72 75 76 71 62 45 23 4 37 55 66 69 66 67 68 74 72 70 66 68 61 54 46 41 36 33 29 29 30 30 29 28 27 28 28 28 25 28 26 29 23 25
67 67 65 66 67 65 58 42 16 14 38 52 63 68 69 65 67 71 68 66 68 63 53 46 42 39 34 30 28 29 29 28 28 28 28 28 28 29 28 26 25 29 20
60 61 61 61 60 60 57 54 41 20 16 32 44 60 67 65 62 63 67 65 64 62 56 49 45 41 35 30 28 27 27 27 27 29 29 29 31 30 27 25 22 24 18
49 51 51 54 55 55 52 46 43 36 24 25 29 41 55 62 59 60 62 65 65 61 59 54 49 44 37 31 27 25 24 24 25 28 30 31 31 30 28 25 21 16 15
45 46 45 42 46 52 53 50 45 43 32 23 29 31 40 54 57 60 57 60 63 63 62 58 52 47 39 33 28 24 22 22 24 29 32 31 30 28 25 22 19 14 11
44 43 43 43 47 48 54 55 52 45 40 31 26 31 33 45 53 59 55 56 61 65 64 60 55 50 43 37 31 24 21 21 25 28 30 29 27 25 19 14 10 8 8
39 40 43 47 52 52 53 57 54 52 42 38 29 29 41 44 46 53 55 55 59 65 66 65 60 55 46 41 36 28 24 24 25 24 25 24 22 18 15 12 9 6 6
30 32 35 39 51 56 55 59 58 53 49 39 36 29 35 46 48 46 51 56 57 63 68 68 64 56 49 45 41 37 32 29 26 23 22 21 19 17 14 12 9 7 6
30 30 32 37 46 56 59 61 61 60 55 50 40 36 31 42 49 48 48 54 64 65 67 69 65 60 55 51 48 42 36 33 30 27 25 22 19 17 15 12 11 9 7
37 38 32 32 48 52 54 63 64 63 63 58 52 41 36 36 48 49 49 53 62 68 70 72 68 66 61 54 48 44 40 36 34 31 28 26 23 21 17 13 11 9 7
35 43 42 39 49 53 52 58 66 65 66 64 59 51 43 38 42 50 53 57 61 67 74 74 72 70 63 55 51 47 42 39 37 35 32 30 27 23 20 16 13 11 7
42 42 39 45 50 52 56 61 64 68 67 66 63 56 50 42 38 52 58 60 64 69 75 77 76 73 65 59 53 48 45 42 40 37 34 30 28 25 22 18 15 12 9
44 35 41 47 48 54 59 65 67 71 70 70 67 61 55 49 41 48 61 64 68 71 77 79 80 77 69 63 57 52 50 48 44 41 39 35 31 28 24 20 16 12 10
35 36 38 42 46 53 58 64 68 70 70 73 73 66 61 55 47 48 56 65 70 72 74 81 81 77 70 66 60 56 52 49 48 46 42 38 34 31 25 20 17 14 11
36 34 36 45 52 52 56 62 67 68 68 74 76 70 61 57 46 44 51 61 68 72 78 82 82 78 73 67 61 57 56 52 50 49 45 42 38 34 29 24 21 18 14
47 39 39 49 52 51 54 59 65 67 69 74 77 74 62 56 44 42 51 58 65 73 78 83 82 80 75 70 66 60 56 52 50 47 43 40 39 37 33 29 26 21 18
57 49 44 49 57 53 50 59 67 68 72 77 78 74 62 57 41 43 51 59 65 74 81 84 84 84 79 75 69 63 58 55 53 45 41 43 43 40 38 34 30 26 21
57 47 44 52 60 56 55 64 66 67 73 80 79 72 62 57 40 43 51 59 70 76 83 86 87 85 81 80 76 72 65 59 55 52 53 51 48 44 39 39 35 29 24
50 40 48 55 61 62 66 67 68 70 74 80 80 69 61 52 43 46 53 62 67 77 84 87 86 89 89 85 76 76 73 68 61 58 59 60 57 53 48 44 39 35 29
46 50 54 60 67 69 71 71 71 70 75 80 79 64 59 46 42 47 49 54 55 63 69 74 84 84 77 74 72 67 62 59 60 65 65 63 58 54 49 46 42 37 32
Wind_Direction_850mb
328 302 275 273 276 257 248 242 238 239 238 237 227 222 220 209 208 219 226 225 226 232 234 237 241 246 253 260 261 261 259 253 235 204 180 165 159 157 165 165 129 5 6
39 15 320 289 259 252 257 237 236 236 242 238 235 224 219 213 211 214 220 226 226 230 233 238 241 246 254 260 261 260 258 252 234 216 198 180 186 190 193 190 202 242 1
42 38 29 19 345 246 242 239 233 235 238 240 233 228 220 221 216 216 218 225 227 228 232 237 240 245 252 259 261 261 260 257 244 222 204 180 197 184 202 201 212 229 166
41 39 35 28 14 321 248 237 233 235 240 242 238 238 233 223 220 218 220 219 225 228 231 235 240 244 252 259 262 262 261 262 253 233 219 214 186 180 183 202 207 219 212
37 34 34 32 29 12 320 246 237 235 238 243 243 243 234 233 231 225 226 228 226 227 230 234 239 243 250 257 263 265 264 262 252 235 221 209 203 196 173 182 198 202 193
35 35 34 33 31 27 24 280 225 241 243 241 243 244 243 236 231 228 226 226 228 230 231 233 238 240 247 256 263 267 268 262 249 233 220 212 205 207 189 182 187 188 182
31 29 27 27 27 25 20 26 241 235 244 245 244 247 247 245 241 237 234 234 234 231 233 235 240 241 246 256 264 268 267 258 243 231 223 219 214 206 197 192 186 180 180
27 24 23 24 24 23 19 13 3 249 245 251 249 249 249 250 248 243 241 242 243 240 237 237 237 237 244 255 261 265 262 250 237 228 221 217 205 191 186 183 181 171 171
24 19 15 18 18 20 20 13 360 329 273 251 255 255 254 251 253 251 246 241 244 242 237 237 237 237 242 249 254 260 255 242 231 224 215 207 195 186 183 176 166 177 165
14 14 14 9 10 13 13 12 8 353 317 274 258 251 257 255 257 254 249 243 241 241 237 235 234 234 238 243 247 252 245 234 224 213 203 195 187 183 180 172 161 157 161
7 8 9 8 1 360 4 5 3 0 344 298 270 255 251 255 256 254 252 247 243 240 236 234 233 233 235 236 237 241 233 221 212 200 193 189 184 182 176 171 163 155 131
360 1 2 2 358 353 351 355 358 356 352 333 290 262 246 252 255 254 252 247 242 238 236 233 231 231 231 230 228 229 222 212 205 194 189 186 182 181 175 161 148 138 118
348 351 351 354 355 353 346 343 346 350 346 341 320 275 250 246 251 256 253 249 242 238 236 231 230 229 229 227 222 218 210 205 204 198 192 190 187 180 172 161 139 124 97
325 337 342 345 344 345 344 337 337 339 339 337 331 309 269 248 244 250 254 251 245 240 236 232 229 227 227 224 220 218 212 209 210 209 203 196 192 182 172 166 163 150 106
303 318 326 335 341 339 338 334 331 335 334 331 331 321 296 262 242 238 246 247 243 241 238 232 228 225 224 223 220 218 216 215 214 211 205 197 188 182 173 165 166 157 146
316 316 312 330 340 338 334 329 331 331 331 329 326 321 306 278 250 235 238 242 241 238 235 231 227 225 223 222 220 220 219 216 214 211 205 197 186 179 177 175 177 173 171
295 300 308 320 329 328 329 328 328 331 328 327 323 317 310 290 260 240 234 236 236 237 234 230 227 226 225 223 220 219 217 215 212 208 204 198 195 194 190 189 192 186 177
286 286 301 313 318 318 326 324 327 329 328 323 320 315 311 298 270 242 234 233 233 233 233 230 227 226 224 222 221 218 215 212 209 208 204 201 201 199 196 197 196 193 184
274 276 297 308 312 316 320 318 321 325 328 323 321 314 311 301 284 250 235 232 231 231 230 229 227 226 222 221 219 217 213 209 208 206 204 201 199 200 199 197 192 189 185
256 285 299 303 308 313 311 312 316 321 324 323 320 314 310 302 285 264 241 234 231 231 229 229 228 226 223 221 218 217 213 210 207 204 202 199 199 201 200 197 196 193 191
257 289 297 299 305 307 307 306 310 315 318 319 317 314 306 301 282 269 246 233 232 230 228 227 227 225 222 222 219 217 215 213 210 207 204 201 202 201 201 201 198 195 195
265 285 286 293 300 305 302 302 305 312 312 314 314 313 306 300 278 263 248 235 231 230 228 225 224 222 220 219 218 217 214 212 213 211 205 204 205 205 205 203 203 200 200
270 282 283 289 293 301 300 301 306 306 307 311 312 311 304 297 271 255 246 237 228 229 226 223 222 219 216 216 215 215 211 210 211 206 206 207 207 206 206 206 206 206 206
267 276 283 292 294 296 299 301 304 303 303 308 309 308 302 295 266 252 244 238 229 226 225 220 219 218 216 215 213 211 208 208 207 203 204 207 208 209 210 210 209 208 210
272 274 286 290 290 292 291 296 300 300 300 305 306 303 298 289 268 254 244 239 235 228 224 220 217 216 216 215 216 215 210 208 206 204 206 208 209 210 211 213 212 211 211
276 282 284 286 288 286 287 291 295 295 296 301 301 298 293 279 266 257 248 242 240 235 227 223 224 223 224 221 219 217 215 213 211 209 213 214 215 217 216 217 219 217 215